• In Hungary
  • List of Countries
  • For 7 days
  • Water Temperature
  • Satellite Maps
  • Weather Map
  • News
  • Weather Widgets
  • user-avatar
    Login

    Hourly Weather Grodziec

    Today, 22 July, Sunday

    Time Temperature Precipitation Wind Pressure Humidity
    00:00 +19°C° 0 mm 1 mps 729 mmHg 70%
    01:00 +19°C° 0 mm 1 mps 729 mmHg 76%
    02:00 +18°C° 0 mm 1 mps 729 mmHg 77%
    03:00 +18°C° 0 mm 1 mps 729 mmHg 77%
    04:00 +18°C° 0 mm 1 mps 729 mmHg 78%
    05:00 +19°C° 0 mm 1 mps 729 mmHg 74%
    06:00 +21°C° 0 mm 1 mps 729 mmHg 70%
    07:00 +23°C° 0 mm 1 mps 729 mmHg 66%
    08:00 +24°C° 0.2 mm 1 mps 729 mmHg 63%
    09:00 +25°C° 0.2 mm 1 mps 729 mmHg 60%
    10:00 +26°C° 0.2 mm 2 mps 729 mmHg 58%
    11:00 +27°C° 0.5 mm 2 mps 729 mmHg 57%
    12:00 +27°C° 0.5 mm 2 mps 729 mmHg 56%
    13:00 +28°C° 0.5 mm 3 mps 729 mmHg 55%
    14:00 +28°C° 0.5 mm 3 mps 729 mmHg 57%
    15:00 +27°C° 0.5 mm 3 mps 729 mmHg 58%
    16:00 +27°C° 0.5 mm 3 mps 729 mmHg 60%
    17:00 +26°C° 0.3 mm 2 mps 728 mmHg 64%
    18:00 +25°C° 0.3 mm 2 mps 728 mmHg 69%
    19:00 +23°C° 0.3 mm 2 mps 728 mmHg 73%
    20:00 +23°C° 0 mm 2 mps 728 mmHg 75%
    21:00 +21°C° 0 mm 2 mps 729 mmHg 77%
    22:00 +20°C° 0 mm 2 mps 729 mmHg 79%
    23:00 +20°C° 0.3 mm 2 mps 729 mmHg 81%

    Tomorrow, 23 July, Monday

    Time Temperature Precipitation Wind Pressure Humidity
    00:00 +19°C° 0.3 mm 2 mps 729 mmHg 84%
    01:00 +19°C° 0.3 mm 2 mps 729 mmHg 86%
    02:00 +18°C° 0.1 mm 2 mps 729 mmHg 87%
    03:00 +18°C° 0.1 mm 2 mps 729 mmHg 88%
    04:00 +17°C° 0.1 mm 2 mps 729 mmHg 90%
    05:00 +18°C° 0 mm 2 mps 729 mmHg 87%
    06:00 +19°C° 0 mm 2 mps 730 mmHg 84%
    07:00 +21°C° 0 mm 2 mps 730 mmHg 81%
    08:00 +22°C° 0.1 mm 3 mps 730 mmHg 74%
    09:00 +24°C° 0.1 mm 3 mps 730 mmHg 67%
    10:00 +26°C° 0.1 mm 4 mps 731 mmHg 60%
    11:00 +26°C° 0.2 mm 4 mps 730 mmHg 59%
    12:00 +27°C° 0.2 mm 4 mps 730 mmHg 58%
    13:00 +27°C° 0.2 mm 4 mps 730 mmHg 57%
    14:00 +27°C° 0.4 mm 4 mps 730 mmHg 60%
    15:00 +26°C° 0.4 mm 4 mps 730 mmHg 63%
    16:00 +26°C° 0.4 mm 4 mps 730 mmHg 66%
    17:00 +25°C° 0.3 mm 3 mps 730 mmHg 70%
    18:00 +24°C° 0.3 mm 3 mps 730 mmHg 74%
    19:00 +22°C° 0.3 mm 3 mps 730 mmHg 78%
    20:00 +21°C° 0 mm 2 mps 730 mmHg 79%
    21:00 +20°C° 0 mm 2 mps 731 mmHg 81%
    22:00 +19°C° 0 mm 2 mps 731 mmHg 82%
    23:00 +19°C° 0 mm 2 mps 731 mmHg 84%

    Day after tomorrow, 24 July, Tuesday

    Time Temperature Precipitation Wind Pressure Humidity
    00:00 +18°C° 0 mm 2 mps 731 mmHg 85%
    01:00 +18°C° 0 mm 2 mps 731 mmHg 87%
    02:00 +17°C° 0 mm 2 mps 731 mmHg 88%
    03:00 +17°C° 0 mm 2 mps 731 mmHg 90%
    04:00 +18°C° 0 mm 1 mps 731 mmHg 92%
    05:00 +18°C° 0 mm 2 mps 731 mmHg 89%
    06:00 +19°C° 0 mm 2 mps 731 mmHg 86%
    07:00 +20°C° 0 mm 2 mps 732 mmHg 83%
    08:00 +22°C° 0 mm 3 mps 732 mmHg 75%
    09:00 +24°C° 0 mm 3 mps 732 mmHg 67%
    10:00 +25°C° 0 mm 4 mps 732 mmHg 59%
    11:00 +26°C° 0 mm 4 mps 732 mmHg 55%
    12:00 +27°C° 0 mm 4 mps 731 mmHg 51%
    13:00 +28°C° 0 mm 4 mps 731 mmHg 47%
    14:00 +28°C° 0 mm 4 mps 731 mmHg 48%
    15:00 +28°C° 0 mm 4 mps 731 mmHg 50%
    16:00 +28°C° 0 mm 4 mps 731 mmHg 51%
    17:00 +26°C° 0 mm 3 mps 731 mmHg 58%
    18:00 +25°C° 0 mm 3 mps 730 mmHg 64%
    19:00 +23°C° 0 mm 2 mps 730 mmHg 71%
    20:00 +21°C° 0 mm 2 mps 731 mmHg 75%
    21:00 +21°C° 0 mm 1 mps 731 mmHg 78%
    22:00 +20°C° 0 mm 1 mps 731 mmHg 82%
    23:00 +20°C° 0 mm 1 mps 731 mmHg 84%

    25 July, Wednesday

    Time Temperature Precipitation Wind Pressure Humidity
    00:00 +19°C° 0 mm 1 mps 731 mmHg 86%
    01:00 +19°C° 0 mm 1 mps 730 mmHg 87%
    02:00 +18°C° 0 mm 1 mps 730 mmHg 88%
    03:00 +18°C° 0 mm 1 mps 730 mmHg 89%
    04:00 +18°C° 0 mm 1 mps 730 mmHg 90%
    05:00 +19°C° 0 mm 1 mps 731 mmHg 86%
    06:00 +21°C° 0 mm 1 mps 731 mmHg 82%
    07:00 +21°C° 0 mm 2 mps 731 mmHg 77%
    08:00 +23°C° 0.1 mm 2 mps 731 mmHg 72%
    09:00 +25°C° 0.1 mm 2 mps 731 mmHg 67%
    10:00 +26°C° 0.1 mm 2 mps 731 mmHg 61%
    11:00 +26°C° 0.2 mm 3 mps 731 mmHg 60%
    12:00 +27°C° 0.2 mm 3 mps 730 mmHg 59%
    13:00 +27°C° 0.2 mm 3 mps 730 mmHg 57%
    14:00 +27°C° 0.3 mm 3 mps 730 mmHg 59%
    15:00 +27°C° 0.3 mm 3 mps 730 mmHg 60%
    16:00 +27°C° 0.3 mm 3 mps 730 mmHg 61%
    17:00 +26°C° 0.1 mm 2 mps 730 mmHg 65%
    18:00 +24°C° 0.1 mm 2 mps 730 mmHg 68%
    19:00 +23°C° 0.1 mm 2 mps 730 mmHg 72%
    20:00 +22°C° 0 mm 1 mps 730 mmHg 73%
    21:00 +21°C° 0 mm 1 mps 730 mmHg 75%
    22:00 +20°C° 0 mm 1 mps 730 mmHg 77%
    23:00 +20°C° 0 mm 1 mps 730 mmHg 79%

    26 July, Thursday

    Time Temperature Precipitation Wind Pressure Humidity
    00:00 +19°C° 0 mm 1 mps 730 mmHg 80%
    01:00 +19°C° 0 mm 1 mps 730 mmHg 82%
    02:00 +18°C° 0 mm 1 mps 730 mmHg 84%
    03:00 +18°C° 0 mm 1 mps 730 mmHg 86%
    04:00 +18°C° 0 mm 1 mps 730 mmHg 88%
    05:00 +19°C° 0 mm 1 mps 731 mmHg 86%
    06:00 +21°C° 0 mm 1 mps 731 mmHg 83%
    07:00 +22°C° 0 mm 1 mps 731 mmHg 80%
    08:00 +23°C° 0.1 mm 2 mps 731 mmHg 75%
    09:00 +24°C° 0.1 mm 2 mps 731 mmHg 71%
    10:00 +26°C° 0.1 mm 2 mps 731 mmHg 66%
    11:00 +27°C° 0.1 mm 3 mps 731 mmHg 63%
    12:00 +27°C° 0.1 mm 3 mps 731 mmHg 60%
    13:00 +28°C° 0.1 mm 3 mps 731 mmHg 57%
    14:00 +28°C° 0.2 mm 3 mps 731 mmHg 59%
    15:00 +28°C° 0.2 mm 3 mps 731 mmHg 60%
    16:00 +28°C° 0.2 mm 3 mps 731 mmHg 62%
    17:00 +26°C° 0.1 mm 2 mps 731 mmHg 67%
    18:00 +25°C° 0.1 mm 2 mps 731 mmHg 71%
    19:00 +24°C° 0.1 mm 1 mps 731 mmHg 76%
    20:00 +23°C° 0.3 mm 1 mps 731 mmHg 79%
    21:00 +22°C° 0.3 mm 1 mps 731 mmHg 81%
    22:00 +21°C° 0.3 mm 1 mps 731 mmHg 84%
    23:00 +21°C° 0.9 mm 1 mps 731 mmHg 85%

    27 July, Friday

    Time Temperature Precipitation Wind Pressure Humidity
    00:00 +21°C° 0.9 mm 1 mps 731 mmHg 86%
    01:00 +20°C° 0.9 mm 1 mps 731 mmHg 87%
    02:00 +20°C° 0.7 mm 1 mps 731 mmHg 88%
    03:00 +20°C° 0.7 mm 1 mps 731 mmHg 89%
    04:00 +20°C° 0.7 mm 1 mps 731 mmHg 90%
    05:00 +20°C° 0.9 mm 1 mps 731 mmHg 90%
    06:00 +21°C° 0.9 mm 1 mps 731 mmHg 90%
    07:00 +22°C° 0.9 mm 1 mps 731 mmHg 89%
    08:00 +22°C° 0.5 mm 1 mps 731 mmHg 88%
    09:00 +23°C° 0.5 mm 1 mps 731 mmHg 87%
    10:00 +23°C° 0.5 mm 1 mps 731 mmHg 86%
    11:00 +24°C° 0.6 mm 2 mps 731 mmHg 81%
    12:00 +25°C° 0.6 mm 2 mps 731 mmHg 77%
    13:00 +26°C° 0.6 mm 2 mps 731 mmHg 72%
    14:00 +26°C° 0.8 mm 2 mps 731 mmHg 72%
    15:00 +26°C° 0.8 mm 2 mps 731 mmHg 73%
    16:00 +26°C° 0.8 mm 2 mps 731 mmHg 73%
    17:00 +25°C° 1.3 mm 2 mps 731 mmHg 77%
    18:00 +24°C° 1.3 mm 1 mps 730 mmHg 81%
    19:00 +23°C° 1.3 mm 1 mps 730 mmHg 85%
    20:00 +22°C° 0.1 mm 1 mps 730 mmHg 86%
    21:00 +22°C° 0.1 mm 1 mps 730 mmHg 88%
    22:00 +19°C° 0.1 mm 0 mps 730 mmHg 89%
    23:00 +19°C° 0 mm 0 mps 730 mmHg 90%
    Show more